Location: 10033 Water Well
(34.0865°N, 106.8959°W)
Time: 22:43:13
(UTC+00:00)

Atlas Centaur 2 - Pass Details

Date: 13 January 2026
Orbit: 456 x 1249 km, 30.4° (Epoch: 11 February)

Event Time Altitude Azimuth Distance (km) Brightness Sun altitude
Exits shadow 11:29:05 18° 165° (SSE) 1,890 4.2 -33.5°
Maximum altitude 11:30:20 20° 148° (SSE) 1,883 4.3 -33.3°
Drops below altitude 10° 11:34:45 10° 104° (ESE) 2,677 5.6 -32.4°
Sets 11:38:25 0° 89° (E) 3,788 6.7 -31.6°
